�N����,����,�~����,�C��,���x,�C��,����,���ϕ���,�ő�u�ԕ���,�ő厞����,���˗�,�I�_���x,�n�����x,�ő啗���N��,DTYPE
"22/07/27","00:10",0.0,27.3,81.5,1003.6,348.1,1.1,2.2,343.4,0.00,23.9,26.4,"00:01:28",1
"22/07/27","00:20",0.0,27.1,82.4,1004.1,342.7,1.3,2.9,346.5,0.00,23.9,26.3,"00:17:36",1
"22/07/27","00:30",0.0,27.1,82.8,1004.1,333.9,1.8,3.2,327.7,0.00,24.0,26.2,"00:28:40",1
"22/07/27","00:40",0.0,27.2,82.6,1003.8,324.6,1.3,2.7,339.0,0.00,24.0,26.3,"00:30:48",1
"22/07/27","00:50",0.0,27.2,82.3,1003.6,334.7,1.8,3.5,338.8,0.00,24.0,26.3,"00:43:28",1
"22/07/27","01:00",0.0,27.2,82.3,1003.8,340.1,1.6,4.1,340.5,0.00,24.0,26.5,"00:57:36",1
"22/07/27","01:10",0.0,27.1,82.6,1003.4,337.6,1.6,2.6,323.9,0.00,23.9,26.3,"01:02:56",1
"22/07/27","01:20",0.0,27.0,82.7,1003.6,333.0,2.1,3.5,345.3,0.00,23.8,26.4,"01:16:48",1
"22/07/27","01:30",0.0,26.9,82.7,1003.8,325.7,2.3,4.5,353.2,0.00,23.7,26.2,"01:20:24",1
"22/07/27","01:40",0.0,26.9,82.7,1003.8,323.2,1.8,3.1,342.2,0.00,23.7,26.2,"01:32:40",1
"22/07/27","01:50",0.0,26.8,82.7,1004.3,327.3,2.1,3.5,314.2,0.00,23.6,26.3,"01:47:20",1
"22/07/27","02:00",0.0,26.8,82.7,1004.8,328.9,2.0,4.1,343.6,0.00,23.6,26.2,"01:54:32",1
"22/07/27","02:10",0.0,26.7,82.9,1004.1,334.2,2.2,4.1,336.2,0.00,23.6,26.2,"02:08:00",1
"22/07/27","02:20",0.0,26.6,83.1,1004.3,328.9,2.0,3.9,351.2,0.00,23.5,26.3,"02:12:24",1
"22/07/27","02:30",0.0,26.5,83.6,1004.3,339.9,1.7,2.7,338.5,0.00,23.5,26.2,"02:20:16",1
"22/07/27","02:40",0.0,26.4,84.2,1004.3,323.8,2.0,3.3,302.1,0.00,23.6,26.1,"02:34:56",1
"22/07/27","02:50",0.0,26.3,84.5,1004.5,329.9,1.8,2.9,347.4,0.00,23.5,26.1,"02:41:36",1
"22/07/27","03:00",0.0,26.2,84.7,1004.1,333.5,2.0,3.5,328.3,0.00,23.5,26.2,"02:54:00",1
"22/07/27","03:10",0.0,26.2,84.9,1004.1,332.3,2.0,3.2,341.1,0.00,23.5,26.1,"03:02:08",1
"22/07/27","03:20",0.0,26.1,85.2,1003.8,342.0,1.7,2.9,347.4,0.00,23.5,26.1,"03:18:40",1
"22/07/27","03:30",0.0,26.0,85.4,1004.1,327.9,2.2,3.6,327.5,0.00,23.4,26.2,"03:22:48",1
"22/07/27","03:40",0.0,26.0,85.5,1003.8,326.6,1.7,2.7,349.8,0.00,23.4,26.1,"03:34:40",1
"22/07/27","03:50",0.0,26.0,85.6,1004.3,332.4,1.8,3.3,336.9,0.00,23.4,26.1,"03:44:56",1
"22/07/27","04:00",0.0,26.1,85.6,1004.5,340.4,1.8,4.1,344.7,0.00,23.5,26.0,"03:50:24",1
"22/07/27","04:10",0.0,26.2,85.5,1004.5,338.5,2.0,3.4,348.5,0.00,23.6,25.9,"04:04:00",1
"22/07/27","04:20",0.0,26.2,85.6,1004.3,337.1,1.7,3.2,334.6,0.00,23.6,26.1,"04:14:24",1
"22/07/27","04:30",0.0,26.2,85.5,1004.3,337.7,1.8,4.0,348.2,0.00,23.6,25.8,"04:25:44",1
"22/07/27","04:40",0.0,26.2,85.6,1004.3,323.3,1.6,2.8,320.5,0.00,23.6,26.0,"04:38:48",1
"22/07/27","04:50",0.0,26.2,85.7,1004.1,310.6,1.6,2.7,345.6,0.00,23.7,26.1,"04:42:32",1
"22/07/27","05:00",0.0,26.1,85.9,1004.5,309.8,1.5,2.7,322.5,0.00,23.6,25.8,"04:59:36",1
"22/07/27","05:10",0.0,26.0,86.2,1004.1,304.9,1.3,3.2,316.3,0.00,23.6,26.0,"05:03:52",1
"22/07/27","05:20",0.0,25.9,86.6,1004.1,314.8,1.7,3.3,305.3,0.00,23.5,25.8,"05:13:44",1
"22/07/27","05:30",0.0,25.8,86.9,1004.1,335.9,2.1,3.2,330.7,0.00,23.5,25.9,"05:26:32",1
"22/07/27","05:40",0.0,25.7,87.1,1004.3,336.6,2.1,4.1,347.5,0.00,23.4,25.8,"05:38:40",1
"22/07/27","05:50",0.0,25.7,87.2,1004.1,339.1,1.8,4.1,343.2,0.00,23.5,26.0,"05:46:00",1
"22/07/27","06:00",0.0,25.8,87.2,1004.3,332.9,1.5,2.7,345.6,0.00,23.5,25.8,"05:54:32",1
"22/07/27","06:10",0.0,25.8,87.3,1004.3,323.0,1.6,2.6,337.3,0.00,23.6,25.8,"06:02:24",1
"22/07/27","06:20",0.0,25.9,87.2,1004.1,330.2,2.0,3.5,325.9,0.00,23.6,25.8,"06:14:00",1
"22/07/27","06:30",0.0,26.0,87.1,1004.3,318.7,1.7,2.6,333.9,0.01,23.7,25.8,"06:22:00",1
"22/07/27","06:40",0.0,26.1,86.9,1004.5,307.4,1.6,3.3,330.9,0.02,23.8,25.8,"06:37:36",1
"22/07/27","06:50",0.0,26.3,86.9,1004.3,315.7,1.6,2.4,310.0,0.04,24.0,25.8,"06:44:00",1
"22/07/27","07:00",0.0,26.6,86.7,1004.3,308.4,1.3,2.6,294.3,0.06,24.2,26.0,"06:52:00",1
"22/07/27","07:10",0.0,26.9,86.0,1004.5,327.3,1.5,3.1,349.0,0.08,24.4,25.6,"07:03:52",1
"22/07/27","07:20",0.0,27.5,85.1,1004.5,338.4,1.1,2.7,348.1,0.10,24.8,25.7,"07:15:36",1
"22/07/27","07:30",0.0,28.3,83.6,1004.3,278.3,0.5,1.6,352.2,0.14,25.3,25.7,"07:23:12",1
"22/07/27","07:40",0.0,29.1,81.7,1004.1,260.0,0.6,1.4,354.1,0.17,25.7,25.8,"07:31:20",1
"22/07/27","07:50",0.0,30.0,79.3,1004.3,148.9,0.2,0.8,168.2,0.17,26.1,25.6,"07:44:08",1
"22/07/27","08:00",0.0,30.1,77.4,1004.8,153.2,0.7,1.7,116.5,0.18,25.7,25.8,"07:51:20",1
"22/07/27","08:10",0.0,30.5,75.5,1005.2,176.2,0.6,1.3,138.3,0.22,25.7,25.5,"08:04:08",1
"22/07/27","08:20",0.0,31.2,73.5,1005.5,46.9,0.5,1.3,62.3,0.22,25.9,25.7,"08:10:08",1
"22/07/27","08:30",0.0,30.7,72.5,1005.7,171.3,1.0,2.4,197.8,0.22,25.2,25.8,"08:28:08",1
"22/07/27","08:40",0.0,30.8,72.0,1005.7,38.8,0.7,2.0,357.6,0.13,25.2,25.5,"08:39:44",1
"22/07/27","08:50",0.0,30.7,72.4,1005.5,28.4,0.6,1.7,6.3,0.13,25.2,25.9,"08:43:04",1
"22/07/27","09:00",0.0,30.6,72.8,1005.2,3.9,0.6,1.9,1.4,0.13,25.2,25.9,"08:58:24",1
"22/07/27","09:10",0.0,30.6,72.6,1005.5,10.7,0.6,2.2,359.8,0.16,25.2,25.9,"09:09:20",1
"22/07/27","09:20",0.0,31.7,70.3,1006.0,51.6,0.5,1.6,26.8,0.34,25.7,25.9,"09:11:52",1
"22/07/27","09:30",0.0,32.2,68.4,1006.0,116.8,0.7,1.9,122.1,0.30,25.7,25.8,"09:25:52",1
"22/07/27","09:40",0.0,32.6,67.9,1006.4,161.9,1.0,2.0,163.2,0.39,25.9,26.0,"09:32:24",1
"22/07/27","09:50",0.0,33.0,65.2,1006.9,40.5,0.7,2.2,94.8,0.37,25.6,25.9,"09:43:52",1
"22/07/27","10:00",0.0,32.8,66.7,1006.9,313.5,0.5,1.9,343.2,0.32,25.8,26.1,"09:59:36",1
"22/07/27","10:10",0.0,33.1,65.1,1006.9,114.1,0.8,2.6,122.3,0.45,25.7,26.1,"10:09:04",1
"22/07/27","10:20",0.0,33.2,63.8,1007.4,113.9,0.7,2.0,129.9,0.35,25.5,26.1,"10:19:12",1
"22/07/27","10:30",0.0,33.1,63.0,1007.4,99.6,0.6,1.3,80.6,0.37,25.1,26.1,"10:27:44",1
"22/07/27","10:40",0.0,33.4,62.9,1007.4,335.4,0.8,1.9,242.7,0.49,25.4,26.1,"10:39:12",1
"22/07/27","10:50",0.0,33.5,63.8,1006.9,351.4,0.7,1.8,358.6,0.53,25.7,26.0,"10:43:36",1
"22/07/27","11:00",0.0,33.4,63.3,1007.1,343.2,1.1,2.1,288.1,0.45,25.5,26.1,"10:50:40",1
"22/07/27","11:10",0.0,33.5,63.7,1006.9,351.7,0.8,1.8,350.2,0.32,25.7,26.0,"11:08:56",1
"22/07/27","11:20",0.0,33.0,64.5,1006.4,349.3,1.2,2.7,354.1,0.32,25.4,26.1,"11:10:32",1
"22/07/27","11:30",0.0,34.0,61.3,1006.7,7.5,0.8,2.2,350.8,0.50,25.5,26.2,"11:20:24",1
"22/07/27","11:40",0.0,34.5,58.5,1006.7,63.7,0.6,1.7,96.2,0.44,25.2,26.4,"11:39:52",1
"22/07/27","11:50",0.0,35.4,58.4,1006.9,72.6,0.6,1.7,64.2,0.55,26.0,26.4,"11:40:24",1
"22/07/27","12:00",0.0,34.7,57.5,1006.7,350.8,1.1,2.2,359.7,0.41,25.1,26.6,"11:54:40",1
"22/07/27","12:10",0.0,35.4,55.8,1006.4,1.1,0.7,2.1,17.0,0.55,25.3,26.4,"12:03:44",1
"22/07/27","12:20",0.0,35.3,54.7,1006.7,13.5,0.8,1.9,311.6,0.60,24.8,26.5,"12:13:44",1
"22/07/27","12:30",0.0,35.4,53.6,1006.7,328.2,1.1,2.1,349.4,0.61,24.6,26.7,"12:24:00",1
"22/07/27","12:40",0.0,35.6,52.1,1006.7,2.6,1.2,2.6,340.5,0.54,24.3,26.7,"12:30:08",1
"22/07/27","12:50",0.0,34.9,55.2,1006.2,325.2,1.0,2.5,342.9,0.24,24.6,26.5,"12:47:12",1
"22/07/27","13:00",0.0,34.5,57.6,1006.0,90.9,0.6,1.7,352.1,0.18,25.0,26.6,"12:50:48",1
"22/07/27","13:10",0.0,34.5,56.4,1006.2,37.0,0.7,1.6,107.7,0.17,24.6,26.7,"13:06:00",1
"22/07/27","13:20",0.0,33.9,60.0,1006.0,261.3,0.3,1.2,186.7,0.07,25.1,26.8,"13:15:36",1
"22/07/27","13:30",0.0,33.3,60.5,1005.2,301.6,0.5,1.4,316.5,0.05,24.7,26.7,"13:23:28",1
"22/07/27","13:40",0.2,32.4,63.3,1004.8,223.9,0.7,2.5,217.5,0.01,24.6,26.6,"13:35:20",1
"22/07/27","13:50",0.4,31.0,68.5,1003.8,53.9,1.1,5.4,28.5,0.00,24.6,26.8,"13:49:52",1
"22/07/27","14:00",0.6,29.0,77.2,1002.9,62.7,1.2,3.9,27.6,0.00,24.6,26.7,"13:50:32",1
"22/07/27","14:10",0.2,28.9,81.4,1002.4,83.6,0.8,2.5,74.3,0.02,25.4,26.7,"14:04:00",1
"22/07/27","14:20",0.2,28.8,83.6,1003.1,74.9,0.8,1.8,28.0,0.03,25.8,26.8,"14:11:28",1
"22/07/27","14:30",0.0,28.8,84.8,1003.4,121.4,1.3,3.3,144.3,0.05,26.0,26.7,"14:29:52",1
"22/07/27","14:40",0.0,28.3,85.7,1004.1,127.9,1.6,3.3,142.1,0.07,25.7,26.7,"14:36:00",1
"22/07/27","14:50",0.0,27.7,86.5,1004.3,103.9,1.1,2.5,153.4,0.11,25.3,26.7,"14:43:04",1
"22/07/27","15:00",0.0,28.2,86.0,1004.3,48.3,0.7,1.7,59.7,0.17,25.7,26.7,"14:55:04",1
"22/07/27","15:10",0.0,28.5,86.0,1004.3,338.9,1.0,2.2,343.5,0.22,26.0,26.6,"15:03:36",1
"22/07/27","15:20",0.0,29.1,83.2,1004.1,327.9,1.1,2.6,325.3,0.34,26.0,26.7,"15:10:16",1
"22/07/27","15:30",0.0,30.0,80.8,1004.8,48.0,0.7,2.0,341.9,0.36,26.4,26.9,"15:28:24",1
"22/07/27","15:40",0.0,31.0,78.0,1005.2,261.0,0.7,1.6,340.1,0.41,26.7,26.8,"15:34:08",1
"22/07/27","15:50",0.0,31.2,73.4,1005.5,301.4,0.8,2.0,301.8,0.35,25.9,26.8,"15:44:08",1
"22/07/27","16:00",0.0,30.3,73.4,1005.0,346.3,0.8,1.7,337.0,0.06,25.0,26.8,"15:56:16",1
"22/07/27","16:10",0.0,30.2,74.4,1005.0,345.7,0.6,1.6,349.7,0.06,25.2,26.8,"16:03:04",1
"22/07/27","16:20",0.0,30.2,77.2,1005.0,339.0,1.0,2.2,347.5,0.09,25.8,26.8,"16:16:32",1
"22/07/27","16:30",0.0,30.3,77.5,1004.8,9.4,1.1,2.8,357.2,0.14,26.0,27.0,"16:28:40",1
"22/07/27","16:40",0.0,30.0,78.7,1004.1,354.6,1.0,1.9,348.5,0.04,25.9,26.9,"16:34:16",1
"22/07/27","16:50",0.0,29.8,80.0,1003.8,358.5,1.0,1.8,10.2,0.03,26.0,26.9,"16:40:48",1
"22/07/27","17:00",0.0,28.8,81.6,1004.1,342.9,1.7,3.4,349.5,0.00,25.4,26.8,"16:56:56",1
"22/07/27","17:10",0.0,28.4,83.2,1003.8,339.6,1.7,3.2,1.2,0.00,25.3,26.8,"17:05:12",1
"22/07/27","17:20",0.0,28.1,84.0,1004.1,345.6,0.7,1.3,348.1,0.00,25.2,26.9,"17:10:56",1
"22/07/27","17:30",0.0,28.0,84.7,1004.1,300.3,0.7,1.3,337.7,0.01,25.2,26.9,"17:20:48",1
"22/07/27","17:40",0.0,28.1,85.0,1004.3,272.9,0.7,1.3,251.6,0.02,25.4,27.0,"17:36:32",1
"22/07/27","17:50",0.0,28.3,85.2,1003.8,107.9,0.3,1.0,142.0,0.02,25.6,26.9,"17:47:04",1
"22/07/27","18:00",0.0,28.3,85.1,1004.1,264.7,0.6,1.4,352.8,0.01,25.6,26.9,"17:56:40",1
"22/07/27","18:10",0.0,28.2,85.3,1004.5,335.0,0.7,1.2,337.6,0.02,25.5,26.8,"18:02:16",1
"22/07/27","18:20",0.0,28.1,85.4,1004.5,308.2,1.0,1.7,313.7,0.01,25.5,26.7,"18:18:56",1
"22/07/27","18:30",0.0,28.2,85.9,1004.5,336.4,1.3,2.6,347.9,0.01,25.7,26.8,"18:22:40",1
"22/07/27","18:40",0.0,28.0,86.4,1004.5,323.4,1.1,1.7,347.8,0.00,25.6,26.7,"18:30:16",1
"22/07/27","18:50",0.0,27.9,86.9,1004.5,309.0,0.8,1.4,318.5,0.00,25.6,26.7,"18:47:28",1
"22/07/27","19:00",0.0,27.6,87.3,1005.0,316.7,1.3,2.5,337.5,0.00,25.3,26.9,"18:55:36",1
"22/07/27","19:10",0.0,27.5,87.5,1004.8,308.3,0.7,1.1,329.9,0.00,25.3,26.8,"19:01:28",1
"22/07/27","19:20",0.0,27.5,87.7,1004.8,314.2,1.1,2.1,325.6,0.00,25.3,26.7,"19:16:32",1
"22/07/27","19:30",0.0,27.5,88.0,1005.2,332.5,1.2,2.0,326.2,0.00,25.4,26.7,"19:21:04",1
"22/07/27","19:40",0.0,27.4,88.2,1005.5,335.2,1.1,1.8,341.1,0.00,25.3,26.8,"19:32:00",1
"22/07/27","19:50",0.0,27.3,88.6,1005.5,312.7,1.1,1.6,331.2,0.00,25.3,26.8,"19:40:32",1
"22/07/27","20:00",0.0,27.1,88.9,1005.5,299.8,1.1,1.7,315.8,0.00,25.1,26.7,"19:56:48",1
"22/07/27","20:10",0.0,27.1,89.1,1005.7,318.7,1.0,1.7,315.8,0.00,25.2,26.7,"20:00:32",1
"22/07/27","20:20",0.0,26.9,89.3,1005.7,324.5,1.0,1.3,340.4,0.00,25.0,26.7,"20:12:40",1
"22/07/27","20:30",0.0,26.9,89.4,1006.0,329.1,1.0,1.2,335.9,0.00,25.0,26.7,"20:25:20",1
"22/07/27","20:40",0.0,27.0,89.7,1006.2,336.8,1.3,1.9,347.1,0.00,25.2,26.6,"20:34:00",1
"22/07/27","20:50",0.0,26.7,90.0,1006.2,309.0,1.1,2.0,323.8,0.00,25.0,26.6,"20:42:32",1
"22/07/27","21:00",0.0,26.6,90.3,1006.2,304.8,0.8,1.4,314.4,0.00,24.9,26.4,"20:54:00",1
"22/07/27","21:10",0.0,26.6,90.5,1006.4,314.5,0.8,1.3,328.9,0.00,25.0,26.7,"21:06:56",1
"22/07/27","21:20",0.0,26.7,90.7,1006.9,301.8,1.0,1.7,317.8,0.00,25.1,26.6,"21:13:44",1
"22/07/27","21:30",0.0,26.7,90.7,1006.9,318.6,1.3,2.1,338.5,0.00,25.1,26.3,"21:24:08",1
"22/07/27","21:40",0.0,26.8,90.8,1006.7,320.1,1.1,1.7,323.6,0.00,25.2,26.3,"21:36:56",1
"22/07/27","21:50",0.0,26.7,90.8,1006.4,314.4,0.8,1.4,320.2,0.00,25.1,26.4,"21:46:32",1
"22/07/27","22:00",0.0,26.6,91.0,1006.4,324.4,1.2,1.6,315.0,0.00,25.0,26.5,"21:53:28",1
"22/07/27","22:10",0.0,26.6,91.1,1006.2,332.6,1.0,1.4,350.2,0.00,25.1,26.5,"22:00:08",1
"22/07/27","22:20",0.0,26.4,91.2,1006.4,321.4,0.8,1.4,320.5,0.00,24.9,26.5,"22:12:40",1
"22/07/27","22:30",0.0,26.2,91.4,1006.9,297.7,0.8,1.4,329.2,0.00,24.7,26.6,"22:28:56",1
"22/07/27","22:40",0.0,26.2,91.6,1007.1,312.8,1.0,1.7,322.8,0.00,24.8,26.3,"22:39:52",1
"22/07/27","22:50",0.0,26.2,91.8,1006.7,321.6,1.1,2.0,318.3,0.00,24.8,26.4,"22:40:16",1
"22/07/27","23:00",0.0,26.2,91.8,1006.4,324.3,1.0,1.7,336.6,0.00,24.8,26.6,"22:51:28",1
"22/07/27","23:10",0.0,26.2,91.9,1006.4,282.3,0.8,1.2,270.6,0.00,24.8,26.4,"23:07:04",1
"22/07/27","23:20",0.0,26.1,92.0,1006.2,305.1,0.7,1.1,316.2,0.00,24.7,26.4,"23:15:52",1
"22/07/27","23:30",0.0,26.2,92.1,1006.4,314.9,1.1,1.3,318.3,0.00,24.9,26.4,"23:21:28",1
"22/07/27","23:40",0.0,26.2,92.2,1006.7,343.3,1.0,1.6,342.5,0.00,24.9,26.3,"23:34:08",1
"22/07/27","23:50",0.0,26.0,92.3,1006.9,326.5,0.8,1.3,343.6,0.00,24.7,26.5,"23:43:44",1
"22/07/27","24:00",0.0,25.8,92.4,1006.9,302.2,0.8,1.3,321.3,0.00,24.5,26.4,"23:57:04",1
